Location: Newark
(39.0622°N, 106.5590°E)
Time: 01:01:17
(UTC+00:00)

Courier 1B - Pass Details

Date: 29 January 2020
Orbit: 962 x 1209 km, 28.3° (Epoch: 20 February)

Event Time Altitude Azimuth Distance (km) Brightness Sun altitude
Rises 00:12:09 0° 257° (WSW) 4,010 10.2 0.7°
Reaches altitude 10° 00:17:08 10° 229° (SW) 3,092 9.9 1.6°
Maximum altitude 00:19:52 12° 208° (SSW) 2,945 10.0 2.0°
Drops below altitude 10° 00:22:39 10° 187° (S) 3,123 10.4 2.5°
Sets 00:27:46 0° 159° (SSE) 4,097 11.6 3.4°
